SR3WXA Weather Reports


Display with metric or nautical units.
time (UTC)temp
F
wind
direction
speed
MPH
gust
MPH
rain 1hr
in
rain 24hr
in
rain mn
in
humidity
%
barometer
mb
20221209154912 33 38 3.0 11.0 0.00 0.03 0.00 96 1007.5
20221209154412 33 12 3.0 11.0 0.00 0.03 0.00 96 1007.5
20221209153552 33 12 2.0 8.0 0.00 0.03 0.00 96 1007.5
20221209153444 33 12 2.0 8.0 0.00 0.03 0.00 96 1007.5
20221209153412 33 12 2.0 8.0 0.00 0.03 0.00 96 1007.5
20221209152912 33 17 3.0 8.0 0.00 0.03 0.00 96 1007.6
20221209152412 33 8 2.0 7.0 0.00 0.03 0.00 96 1007.6
20221209151833 33 16 2.0 7.0 0.00 0.03 0.00 96 1007.7
20221209151755 33 16 2.0 7.0 0.00 0.03 0.00 96 1007.7
20221209150840 33 16 3.0 7.0 0.00 0.03 0.00 96 1007.8
20221209150755 33 16 3.0 7.0 0.00 0.03 0.00 96 1007.8
20221209150354 33 14 3.0 7.0 0.00 0.03 0.00 97 1007.7
20221209150255 33 14 3.0 7.0 0.00 0.03 0.00 97 1007.7
20221209145755 33 0 0.0 5.0 0.00 0.03 0.00 97 1007.7
20221209145255 33 50 2.0 7.0 0.00 0.03 0.00 97 1007.7
20221209144905 33 16 1.0 7.0 0.00 0.03 0.00 97 1007.6
20221209144755 33 16 1.0 7.0 0.00 0.03 0.00 97 1007.6
20221209143755 33 7 3.0 6.0 0.00 0.03 0.00 97 1007.7
20221209143255 33 18 1.0 4.0 0.00 0.03 0.00 97 1007.7
20221209142755 33 18 1.0 5.0 0.00 0.03 0.00 97 1007.7
20221209142255 33 18 2.0 5.0 0.00 0.03 0.00 97 1007.8
20221209141755 33 0 0.0 5.0 0.00 0.03 0.00 97 1007.9
20221209141255 33 43 1.0 4.0 0.00 0.03 0.00 97 1007.8
20221209140924 33 49 1.0 4.0 0.00 0.03 0.00 97 1007.9
20221209140755 33 49 1.0 4.0 0.00 0.03 0.00 97 1007.9
20221209140501 33 0 0.0 4.0 0.00 0.03 0.00 97 1007.9
20221209140255 33 0 0.0 4.0 0.00 0.03 0.00 97 1007.9
20221209135841 33 0 0.0 5.0 0.00 0.03 0.00 97 1007.9
20221209135755 33 0 0.0 5.0 0.00 0.03 0.00 97 1007.9
20221209135255 33 0 0.0 5.0 0.00 0.03 0.00 97 1007.9
20221209134755 33 0 0.0 3.0 0.00 0.03 0.00 98 1007.8
20221209134255 33 0 0.0 3.0 0.00 0.03 0.00 98 1007.8
20221209133755 33 0 0.0 2.0 0.00 0.03 0.00 98 1007.8
20221209133255 33 0 0.0 0.0 0.00 0.03 0.00 98 1007.9
20221209132205 33 60 2.0 5.0 0.00 0.03 0.00 98 1007.8
20221209131704 33 62 1.0 5.0 0.00 0.03 0.00 98 1007.7
20221209131204 34 85 1.0 4.0 0.00 0.03 0.00 98 1007.6
20221209130704 34 0 0.0 3.0 0.00 0.03 0.00 98 1007.6
20221209130204 34 0 0.0 3.0 0.00 0.03 0.00 98 1007.6
20221209125704 34 0 0.0 0.0 0.00 0.03 0.00 98 1007.6
20221209125204 34 0 0.0 5.0 0.00 0.03 0.00 98 1007.6
20221209124704 33 0 0.0 7.0 0.00 0.03 0.00 98 1007.6
20221209124204 33 4 3.0 7.0 0.00 0.04 0.00 98 1007.6
20221209123308 34 0 0.0 3.0 0.00 0.04 0.00 98 1007.7
20221209122808 34 0 0.0 4.0 0.00 0.04 0.00 98 1007.7
20221209122308 34 0 0.0 4.0 0.00 0.04 0.00 98 1007.7
20221209121308 34 18 1.0 4.0 0.00 0.05 0.00 98 1007.8
20221209120808 34 18 1.0 4.0 0.00 0.05 0.00 98 1007.9
20221209120308 34 0 0.0 1.0 0.00 0.05 0.00 98 1008.0
20221209115808 34 0 0.0 2.0 0.00 0.05 0.00 98 1008.0
20221209115308 34 0 0.0 3.0 0.00 0.05 0.00 98 1008.0
20221209114308 34 15 1.0 4.0 0.00 0.05 0.00 98 1008.0
20221209113808 34 0 0.0 4.0 0.00 0.05 0.00 98 1008.0
20221209113308 34 0 0.0 5.0 0.00 0.05 0.00 98 1008.0
20221209112808 34 44 1.0 5.0 0.00 0.05 0.00 98 1008.0
20221209112308 34 0 0.0 4.0 0.00 0.05 0.00 98 1008.1
20221209111808 34 0 0.0 5.0 0.00 0.05 0.00 98 1008.1
20221209111308 34 24 1.0 5.0 0.00 0.05 0.00 98 1008.1
20221209110309 34 0 0.0 0.0 0.00 0.05 0.00 98 1008.3
20221209105808 34 0 0.0 0.0 0.00 0.05 0.00 98 1008.4
20221209104023 33 0 0.0 0.0 0.00 0.05 0.00 98 1008.4
20221209103523 34 0 0.0 0.0 0.00 0.05 0.00 98 1008.5
20221209103023 34 0 0.0 4.0 0.00 0.05 0.00 98 1008.5
20221209102523 33 0 0.0 4.0 0.00 0.05 0.00 98 1008.5
20221209102023 33 0 0.0 0.0 0.00 0.05 0.00 98 1008.6
20221209101523 33 0 0.0 0.0 0.00 0.05 0.00 98 1008.7
20221209101023 33 0 0.0 0.0 0.00 0.05 0.00 98 1008.8
20221209100523 33 0 0.0 0.0 0.00 0.05 0.00 98 1008.7
20221209100023 33 0 0.0 0.0 0.00 0.05 0.00 98 1008.8
20221209095523 33 0 0.0 0.0 0.00 0.05 0.00 98 1008.8
20221209094523 33 0 0.0 0.0 0.00 0.05 0.00 98 1008.7
20221209094025 33 0 0.0 0.0 0.00 0.05 0.00 98 1008.7
20221209093523 33 0 0.0 0.0 0.00 0.05 0.00 98 1008.7
20221209093026 34 0 0.0 0.0 0.00 0.05 0.00 98 1008.7
20221209092523 34 0 0.0 0.0 0.00 0.05 0.00 98 1008.7
20221209092023 33 0 0.0 0.0 0.00 0.05 0.00 98 1008.7
20221209091555 33 0 0.0 0.0 0.00 0.05 0.00 98 1008.8
20221209091523 33 0 0.0 0.0 0.00 0.05 0.00 98 1008.8
20221209091023 33 0 0.0 0.0 0.00 0.05 0.00 98 1008.8
20221209090524 33 0 0.0 0.0 0.00 0.05 0.00 98 1008.7
20221209090023 33 0 0.0 0.0 0.00 0.05 0.00 98 1008.7
20221209085130 33 0 0.0 0.0 0.00 0.05 0.00 98 1008.6
20221209084630 33 0 0.0 0.0 0.00 0.05 0.00 98 1008.7
20221209084130 33 0 0.0 0.0 0.00 0.05 0.00 98 1008.6
20221209083630 33 0 0.0 0.0 0.00 0.05 0.00 98 1008.7
20221209083129 32 0 0.0 3.0 0.00 0.05 0.00 98 1008.8
20221209082630 32 0 0.0 3.0 0.00 0.05 0.00 98 1008.8
20221209081630 32 113 1.0 3.0 0.00 0.05 0.00 97 1008.8
20221209081130 32 0 0.0 2.0 0.00 0.05 0.00 97 1008.8
20221209080248 32 0 0.0 3.0 0.00 0.05 0.00 97 1008.7
20221209075748 32 0 0.0 4.0 0.00 0.05 0.00 97 1008.6
20221209075248 32 115 1.0 4.0 0.00 0.05 0.00 98 1008.7
20221209074748 33 0 0.0 0.0 0.00 0.05 0.00 98 1008.8
20221209074248 33 0 0.0 0.0 0.00 0.05 0.00 98 1008.6
20221209073748 33 0 0.0 0.0 0.00 0.05 0.00 98 1008.6
20221209073248 32 0 0.0 0.0 0.00 0.05 0.00 97 1008.6
20221209072748 33 0 0.0 0.0 0.00 0.05 0.00 98 1008.7
20221209072248 33 0 0.0 0.0 0.00 0.05 0.00 97 1008.7
20221209071748 33 0 0.0 0.0 0.00 0.05 0.00 97 1008.6
20221209071248 33 0 0.0 0.0 0.00 0.05 0.00 98 1008.6
20221209070748 33 0 0.0 0.0 0.00 0.05 0.00 98 1008.5
20221209070248 34 0 0.0 0.0 0.00 0.05 0.00 98 1008.5
20221209065748 33 0 0.0 0.0 0.00 0.05 0.00 97 1008.5
20221209065248 33 0 0.0 1.0 0.00 0.05 0.00 97 1008.5
20221209064748 33 0 0.0 1.0 0.00 0.05 0.00 97 1008.4
20221209064248 33 0 0.0 1.0 0.00 0.05 0.00 97 1008.4
20221209063749 33 0 0.0 0.0 0.00 0.05 0.00 97 1008.4
20221209063248 33 0 0.0 0.0 0.00 0.05 0.00 97 1008.4
20221209062748 32 0 0.0 0.0 0.00 0.05 0.00 97 1008.3
20221209062248 32 0 0.0 0.0 0.00 0.05 0.00 97 1008.3
20221209061748 33 0 0.0 0.0 0.00 0.05 0.00 97 1008.3
20221209060935 33 0 0.0 0.0 0.00 0.05 0.00 97 1008.2
20221209060433 33 0 0.0 0.0 0.00 0.05 0.00 97 1008.1
20221209055933 33 0 0.0 0.0 0.00 0.05 0.00 97 1008.2
20221209055433 33 0 0.0 0.0 0.00 0.05 0.00 97 1008.1
20221209054933 33 0 0.0 0.0 0.00 0.05 0.00 97 1008.1
20221209054433 33 0 0.0 0.0 0.00 0.05 0.00 97 1008.1
20221209053933 33 0 0.0 0.0 0.00 0.05 0.00 97 1008.2
20221209053433 33 0 0.0 2.0 0.00 0.05 0.00 97 1008.1
20221209052933 33 0 0.0 3.0 0.00 0.05 0.00 97 1008.1
20221209052433 33 0 0.0 3.0 0.00 0.05 0.00 97 1008.1
20221209051933 33 0 0.0 2.0 0.00 0.05 0.00 97 1008.1
20221209051433 33 0 0.0 2.0 0.00 0.05 0.00 97 1007.9
20221209050934 33 0 0.0 2.0 0.00 0.05 0.00 97 1007.9
20221209050433 33 0 0.0 0.0 0.00 0.05 0.00 97 1007.9
20221209045934 33 0 0.0 0.0 0.00 0.05 0.00 97 1007.9
20221209045434 34 0 0.0 0.0 0.00 0.05 0.00 97 1007.9
20221209044933 34 0 0.0 0.0 0.00 0.05 0.00 97 1007.9
20221209044433 34 0 0.0 0.0 0.00 0.05 0.00 97 1007.9
20221209043105 34 0 0.0 0.0 0.00 0.05 0.00 97 1007.8
20221209042605 34 0 0.0 0.0 0.00 0.05 0.00 97 1007.8
20221209042105 34 0 0.0 0.0 0.00 0.05 0.00 97 1007.9
20221209041605 34 0 0.0 0.0 0.00 0.05 0.00 97 1007.9
20221209041105 34 0 0.0 0.0 0.00 0.05 0.00 97 1007.9
20221209040605 34 0 0.0 0.0 0.00 0.05 0.00 97 1007.9
20221209040105 34 0 0.0 0.0 0.00 0.05 0.00 97 1007.9
20221209035605 34 0 0.0 0.0 0.00 0.05 0.00 97 1007.9
20221209035105 34 0 0.0 0.0 0.00 0.05 0.00 97 1007.9
20221209034605 34 0 0.0 0.0 0.00 0.05 0.00 97 1007.9
20221209034105 34 0 0.0 0.0 0.00 0.05 0.00 97 1007.9
20221209033605 34 0 0.0 0.0 0.00 0.05 0.00 97 1007.9
20221209033105 34 0 0.0 0.0 0.00 0.05 0.00 97 1008.0
20221209032605 34 0 0.0 0.0 0.00 0.05 0.00 97 1007.9
20221209032105 34 0 0.0 0.0 0.00 0.05 0.00 97 1008.0
20221209031605 34 0 0.0 0.0 0.00 0.05 0.00 97 1008.0
20221209031105 34 0 0.0 1.0 0.00 0.05 0.00 97 1008.1
20221209030605 34 0 0.0 2.0 0.00 0.05 0.00 97 1008.1
20221209030105 34 0 0.0 2.0 0.00 0.05 0.00 97 1008.1
20221209025605 34 0 0.0 1.0 0.00 0.05 0.00 97 1008.1
20221209025105 34 0 0.0 4.0 0.00 0.05 0.00 97 1008.0
20221209024605 34 0 0.0 4.0 0.00 0.05 0.00 97 1008.0
20221209023829 34 0 0.0 4.0 0.00 0.05 0.00 97 1008.0
20221209023329 34 0 0.0 4.0 0.00 0.05 0.00 97 1008.0
20221209022830 34 0 0.0 2.0 0.00 0.05 0.00 97 1008.0
20221209022329 34 0 0.0 2.0 0.00 0.05 0.00 97 1007.9
20221209021829 34 0 0.0 4.0 0.00 0.05 0.00 97 1007.9
20221209021330 34 0 0.0 4.0 0.00 0.05 0.00 97 1007.9
20221209020830 34 0 0.0 3.0 0.00 0.05 0.00 97 1007.8
20221209020329 34 0 0.0 3.0 0.00 0.05 0.00 97 1007.9
20221209015829 34 0 0.0 0.0 0.00 0.05 0.00 97 1007.9
20221209015329 34 0 0.0 0.0 0.00 0.05 0.00 97 1007.9
20221209014829 34 0 0.0 0.0 0.00 0.05 0.00 97 1007.8
20221209014329 34 0 0.0 0.0 0.00 0.05 0.00 97 1007.8
20221209013829 34 0 0.0 3.0 0.00 0.05 0.00 97 1007.7
20221209013329 34 0 0.0 3.0 0.00 0.05 0.00 97 1007.6
20221209012829 34 0 0.0 4.0 0.00 0.05 0.00 97 1007.6
20221209012329 34 271 1.0 6.0 0.00 0.05 0.00 97 1007.8
20221209011829 34 271 2.0 6.0 0.00 0.05 0.00 97 1007.7
20221209011329 34 0 0.0 4.0 0.00 0.05 0.00 97 1007.7
20221209010829 34 0 0.0 4.0 0.00 0.05 0.00 97 1007.7
20221209010329 34 271 1.0 3.0 0.00 0.05 0.00 97 1007.7
20221209005829 34 0 0.0 4.0 0.00 0.05 0.00 97 1007.7
20221209005329 34 0 0.0 4.0 0.00 0.05 0.00 97 1007.7
20221209004141 34 271 2.0 4.0 0.00 0.05 0.00 97 1007.5
20221209003641 34 271 1.0 3.0 0.00 0.05 0.00 97 1007.5
20221209003141 34 271 1.0 3.0 0.00 0.05 0.00 97 1007.5
20221209002641 34 0 0.0 4.0 0.00 0.05 0.00 97 1007.4
20221209002141 34 271 1.0 4.0 0.00 0.05 0.00 97 1007.4
20221209001641 34 271 2.0 4.0 0.00 0.05 0.00 97 1007.3
20221209001141 34 271 2.0 6.0 0.00 0.05 0.00 97 1007.3
20221209000641 34 271 1.0 6.0 0.00 0.05 0.00 97 1007.3
20221209000141 34 271 1.0 6.0 0.00 0.05 0.00 97 1007.3
20221208235641 34 271 3.0 8.0 0.00 0.05 0.00 97 1007.4
20221208235141 34 271 3.0 8.0 0.00 0.05 0.00 97 1007.4
20221208234641 34 274 1.0 6.0 0.00 0.05 0.00 96 1007.4
20221208234141 34 274 2.0 6.0 0.00 0.05 0.00 96 1007.3
20221208233641 34 0 0.0 7.0 0.00 0.05 0.00 96 1007.2
20221208233141 34 301 2.0 7.0 0.00 0.05 0.00 96 1007.3
20221208232641 34 290 2.0 5.0 0.00 0.05 0.00 96 1007.2
20221208232141 34 0 0.0 4.0 0.00 0.05 0.00 96 1007.2
20221208231641 35 290 1.0 4.0 0.00 0.05 0.00 96 1007.2
20221208231141 35 0 0.0 4.0 0.00 0.05 0.00 96 1007.2
20221208230641 35 0 0.0 2.0 0.01 0.05 0.00 96 1007.2
20221208225755 35 290 1.0 4.0 0.01 0.05 0.05 96 1007.2
20221208225255 35 0 0.0 3.0 0.01 0.05 0.05 96 1007.1
20221208224755 35 0 0.0 3.0 0.01 0.05 0.05 96 1007.2
20221208224255 35 0 0.0 3.0 0.01 0.05 0.05 96 1007.1
20221208223755 35 290 1.0 4.0 0.01 0.05 0.05 96 1007.1
20221208223255 35 290 1.0 4.0 0.01 0.05 0.05 96 1007.0
20221208222755 35 290 2.0 4.0 0.01 0.05 0.05 96 1006.9
20221208222255 35 0 0.0 3.0 0.01 0.05 0.05 96 1006.9
20221208221755 35 0 0.0 4.0 0.01 0.05 0.05 96 1006.9
20221208221255 35 0 0.0 4.0 0.01 0.05 0.05 96 1007.0
20221208220755 35 290 2.0 5.0 0.00 0.04 0.04 96 1006.9
20221208220255 35 294 2.0 5.0 0.00 0.04 0.04 96 1006.9
20221208215755 35 315 1.0 4.0 0.00 0.04 0.04 95 1007.0
20221208215255 35 315 2.0 4.0 0.00 0.04 0.04 95 1007.0
20221208214755 35 315 1.0 4.0 0.00 0.04 0.04 95 1006.9
20221208214255 35 0 0.0 4.0 0.01 0.04 0.04 95 1007.0
20221208213755 35 0 0.0 4.0 0.01 0.04 0.04 95 1006.9
20221208213255 35 0 0.0 4.0 0.01 0.04 0.04 95 1006.9
20221208212755 35 315 1.0 4.0 0.01 0.04 0.04 95 1006.9
20221208212255 35 317 1.0 4.0 0.02 0.04 0.04 95 1006.9
20221208211755 35 0 0.0 4.0 0.02 0.04 0.04 95 1006.9
20221208211255 35 267 1.0 6.0 0.02 0.04 0.04 95 1007.0
20221208210755 35 267 3.0 6.0 0.02 0.04 0.04 94 1006.9
20221208210255 35 0 0.0 6.0 0.02 0.04 0.04 94 1006.8
20221208205755 35 267 1.0 4.0 0.02 0.04 0.04 94 1006.8
20221208205255 35 0 0.0 4.0 0.02 0.04 0.04 94 1006.7
20221208204755 36 0 0.0 6.0 0.02 0.04 0.04 94 1006.7
20221208204255 36 267 2.0 7.0 0.01 0.03 0.03 93 1006.7
20221208203755 36 267 2.0 7.0 0.01 0.03 0.03 93 1006.7
20221208203255 36 269 4.0 7.0 0.01 0.03 0.03 93 1006.5
20221208202755 36 216 4.0 7.0 0.01 0.03 0.03 93 1006.5
20221208202255 36 0 0.0 5.0 0.00 0.02 0.02 93 1006.5
20221208201755 36 240 1.0 4.0 0.00 0.02 0.02 93 1006.5
20221208201255 36 240 1.0 4.0 0.00 0.02 0.02 93 1006.4
20221208200755 36 0 0.0 2.0 0.00 0.02 0.02 93 1006.3
20221208195916 36 240 2.0 6.0 0.00 0.02 0.02 92 1006.4
20221208195416 36 240 2.0 8.0 0.00 0.02 0.02 92 1006.4
20221208194916 36 240 2.0 8.0 0.00 0.02 0.02 92 1006.3
20221208194416 36 0 0.0 7.0 0.00 0.02 0.02 92 1006.3
20221208193916 36 247 1.0 7.0 0.00 0.02 0.02 92 1006.4
20221208193416 37 0 0.0 5.0 0.00 0.02 0.02 91 1006.3
20221208192916 37 248 3.0 5.0 0.00 0.02 0.02 91 1006.3
20221208192416 37 248 2.0 8.0 0.00 0.02 0.02 91 1006.3
20221208191916 37 246 3.0 8.0 0.00 0.02 0.02 91 1006.3
20221208191019 37 212 4.0 8.0 0.00 0.02 0.02 91 1006.3
20221208190519 37 233 4.0 9.0 0.00 0.02 0.02 91 1006.2
20221208190019 37 228 4.0 9.0 0.00 0.02 0.02 91 1006.1
20221208185519 37 186 3.0 9.0 0.00 0.02 0.02 91 1006.1
20221208185019 37 207 2.0 12.0 0.00 0.02 0.02 91 1006.1
20221208184519 37 198 4.0 12.0 0.00 0.02 0.02 91 1006.1
20221208184019 37 196 4.0 11.0 0.00 0.02 0.02 91 1006.0
20221208183520 37 189 4.0 10.0 0.00 0.02 0.02 92 1006.1
20221208182518 37 171 4.0 10.0 0.00 0.02 0.02 92 1006.1
20221208182019 37 180 1.0 9.0 0.00 0.02 0.02 93 1006.0
20221208181519 37 176 3.0 9.0 0.00 0.02 0.02 92 1006.0
20221208181018 37 178 3.0 8.0 0.00 0.02 0.02 93 1006.0
20221208180518 37 178 4.0 10.0 0.00 0.02 0.02 93 1006.0
20221208180019 37 168 4.0 10.0 0.00 0.02 0.02 93 1006.0
20221208175518 37 168 4.0 9.0 0.00 0.02 0.02 93 1005.9
20221208175019 37 161 4.0 9.0 0.00 0.02 0.02 93 1005.9
20221208174518 37 159 5.0 9.0 0.00 0.02 0.02 93 1006.0
20221208173726 37 153 1.0 6.0 0.00 0.02 0.02 93 1005.9
20221208172726 37 167 3.0 10.0 0.00 0.02 0.02 93 1006.0
20221208171727 37 170 3.0 12.0 0.00 0.02 0.02 93 1006.0
20221208171226 37 159 5.0 9.0 0.00 0.02 0.02 92 1005.9
20221208170727 37 159 3.0 9.0 0.00 0.02 0.02 92 1005.9
20221208165726 37 163 3.0 8.0 0.00 0.02 0.02 92 1005.9
20221208165040 37 145 2.0 7.0 0.00 0.02 0.02 92 1006.0
20221208164540 37 181 3.0 11.0 0.00 0.02 0.02 93 1006.0
20221208164040 37 161 4.0 11.0 0.00 0.02 0.02 93 1005.9
20221208163540 37 167 5.0 10.0 0.00 0.02 0.02 93 1005.9
20221208163114 37 166 5.0 10.0 0.00 0.02 0.02 93 1005.9
20221208163040 37 166 5.0 10.0 0.00 0.02 0.02 93 1005.9
20221208162540 37 165 6.0 10.0 0.00 0.02 0.02 93 1006.0
20221208162040 37 165 4.0 7.0 0.00 0.02 0.02 93 1006.0
20221208161540 37 189 2.0 7.0 0.00 0.02 0.02 93 1006.0
20221208161040 37 166 2.0 6.0 0.00 0.02 0.02 93 1006.0
20221208160330 37 165 4.0 9.0 0.00 0.02 0.02 93 1006.1
20221208155830 37 166 6.0 9.0 0.00 0.02 0.02 93 1006.1
20221208155329 37 181 2.0 9.0 0.00 0.02 0.02 93 1006.0